EW9248 Weather Reports


Display with metric or nautical units.
time (UTC)temp
F
wind
direction
speed
MPH
gust
MPH
rain 1hr
in
rain 24hr
in
rain mn
in
humidity
%
barometer
mb
20260507165615 53 0 2.0 5.0 0.00 0.03 0.00 59 1011.6
20260507164615 56 0.0 2.0 0.00 0.03 0.00 67 1011.7
20260507163635 52 45 3.0 4.0 0.00 0.03 0.00 60 1011.7
20260507161635 54 247 6.0 8.0 0.00 0.04 0.00 58 1011.8
20260507160615 53 292 2.0 4.0 0.00 0.04 0.00 60 1011.9
20260507155656 52 315 1.0 3.0 0.00 0.04 0.00 61 1012.0
20260507154615 52 0.0 2.0 0.00 0.05 0.00 60 1011.9
20260507153655 52 337 1.0 2.0 0.00 0.05 0.00 58 1012.1
20260507152756 53 270 1.0 2.0 0.00 0.06 0.00 57 1012.2
20260507151615 53 315 1.0 4.0 0.00 0.06 0.00 58 1012.4
20260507150615 53 292 6.0 8.0 0.00 0.06 0.00 60 1012.4
20260507145615 52 270 1.0 2.0 0.00 0.06 0.00 61 1012.3
20260507144656 52 0 1.0 2.0 0.00 0.06 0.00 64 1012.6
20260507143635 51 292 1.0 3.0 0.00 0.07 0.00 60 1012.7
20260507140717 49 0.0 1.0 0.00 0.08 0.00 71 1012.7
20260507135617 49 0.0 2.0 0.00 0.08 0.00 67 1012.7
20260507134718 49 247 4.0 8.0 0.00 0.08 0.00 71 1012.9
20260507133657 48 292 2.0 3.0 0.00 0.09 0.00 72 1013.0
20260507132658 47 292 2.0 3.0 0.00 0.10 0.00 75 1013.0
20260507131617 46 0.0 1.0 0.00 0.10 0.00 76 1013.0
20260507130637 45 135 2.0 3.0 0.00 0.11 0.00 80 1013.0
20260507125616 45 315 1.0 1.0 0.00 0.13 0.00 87 1013.0
20260507124617 44 0.0 1.0 0.00 0.15 0.00 92 1013.0
20260507123637 42 0.0 1.0 0.00 0.17 0.00 94 1013.0
20260507122616 41 0.0 0.0 0.00 0.19 0.00 95 1013.0
20260507121616 40 0.0 0.0 0.00 0.20 0.00 95 1013.0
20260507120637 39 0.0 1.0 0.00 0.21 0.00 95 1012.9
20260507115616 39 0.0 0.0 0.00 0.21 0.00 95 1013.0
20260507114617 38 0.0 0.0 0.00 0.22 0.00 95 1012.9
20260507113643 37 0.0 0.0 0.00 0.22 0.00 95 1012.8
20260507112639 36 0.0 0.0 0.00 0.23 0.00 94 1012.7
20260507111616 36 0.0 0.0 0.00 0.24 0.00 94 1012.6
20260507110636 36 0.0 0.0 0.00 0.26 0.00 94 1012.4
20260507105717 36 0.0 0.0 0.00 0.27 0.00 94 1012.3
20260507104656 35 0.0 0.0 0.00 0.27 0.00 94 1012.4
20260507103657 35 0.0 0.0 0.00 0.27 0.00 94 1012.4
20260507102616 35 0.0 0.0 0.00 0.27 0.00 94 1012.4
20260507101616 35 0.0 0.0 0.00 0.27 0.00 94 1012.1
20260507100616 35 0.0 0.0 0.00 0.27 0.00 93 1012.0
20260507095616 35 0.0 0.0 0.00 0.28 0.00 93 1012.0
20260507094657 36 0.0 0.0 0.00 0.28 0.00 93 1011.9
20260507093616 36 0.0 0.0 0.00 0.28 0.00 93 1011.9
20260507092636 36 0.0 0.0 0.00 0.28 0.00 93 1012.1
20260507091637 37 0.0 0.0 0.00 0.29 0.00 93 1012.2
20260507090616 37 0.0 0.0 0.00 0.29 0.00 93 1012.2
20260507085616 38 0.0 0.0 0.00 0.29 0.00 92 1012.2
20260507084616 39 0.0 0.0 0.00 0.29 0.00 92 1012.1
20260507083637 39 0.0 0.0 0.00 0.29 0.00 92 1012.2
20260507082616 39 0.0 0.0 0.00 0.29 0.00 91 1012.2
20260507081616 40 0.0 0.0 0.00 0.29 0.00 91 1012.3
20260507080617 41 0.0 0.0 0.00 0.29 0.00 91 1012.3
20260507075616 41 0.0 0.0 0.00 0.29 0.00 90 1012.3
20260507074616 42 0.0 0.0 0.00 0.29 0.00 89 1012.2
20260507073616 42 0.0 0.0 0.00 0.29 0.00 88 1012.2
20260507072617 43 0.0 0.0 0.00 0.29 0.00 88 1012.1
20260507071616 43 0.0 0.0 0.00 0.29 0.00 88 1012.1
20260507070616 43 0.0 1.0 0.00 0.29 0.00 89 1012.3
20260507065656 43 0.0 0.0 0.00 0.29 0.00 90 1012.3
20260507064637 43 0.0 1.0 0.00 0.29 0.00 91 1012.2
20260507063616 43 0.0 1.0 0.00 0.29 0.00 91 1012.3
20260507061616 43 45 3.0 7.0 0.00 0.29 0.00 93 1012.0
20260507060617 44 0.0 1.0 0.00 0.29 0.00 93 1012.0
20260507055616 44 0.0 1.0 0.00 0.29 0.00 94 1012.0
20260507053637 44 0.0 1.0 0.00 0.29 0.00 95 1011.8
20260507052616 44 67 2.0 4.0 0.00 0.29 0.00 95 1011.9
20260507051636 45 0.0 1.0 0.00 0.29 0.00 95 1012.0
20260507050657 45 0.0 0.0 0.00 0.29 0.00 95 1012.0
20260507045616 45 292 2.0 3.0 0.00 0.29 0.00 95 1012.0
20260507044616 45 0 1.0 2.0 0.00 0.29 0.00 95 1011.9
20260507043657 45 0.0 0.0 0.00 0.29 0.00 95 1011.8
20260507042616 45 0.0 0.0 0.00 0.29 0.00 95 1011.9
20260507041616 45 0.0 0.0 0.00 0.29 0.00 95 1011.7
20260507040656 45 0.0 0.0 0.00 0.29 0.00 95 1011.4
20260507035717 45 0.0 0.0 0.00 0.29 0.28 95 1011.5
20260507034716 45 0.0 0.0 0.00 0.29 0.28 95 1011.3
20260507033716 45 0.0 0.0 0.00 0.29 0.28 95 1011.2
20260507032657 45 0.0 0.0 0.00 0.29 0.28 95 1011.3
20260507031616 45 0.0 0.0 0.00 0.29 0.28 95 1011.8
20260507030656 45 0.0 0.0 0.00 0.29 0.28 95 1011.7
20260507025637 45 0.0 0.0 0.00 0.29 0.28 95 1011.6
20260507024616 45 0.0 0.0 0.00 0.29 0.28 94 1012.0
20260507023636 45 0.0 0.0 0.00 0.29 0.28 94 1011.8
20260507022617 45 0.0 0.0 0.00 0.29 0.28 94 1011.6
20260507021656 45 0.0 0.0 0.00 0.29 0.28 94 1012.0
20260507020616 45 0.0 0.0 0.00 0.29 0.28 94 1011.8
20260507015617 45 0.0 0.0 0.00 0.29 0.28 94 1011.9
20260507014616 45 0.0 0.0 0.00 0.29 0.28 94 1012.0
20260507013636 45 0.0 0.0 0.00 0.29 0.28 93 1011.9
20260507012616 45 0.0 0.0 0.00 0.29 0.28 93 1011.8
20260507011616 46 0.0 0.0 0.00 0.29 0.28 93 1011.9
20260507010657 46 0.0 0.0 0.00 0.29 0.28 93 1011.8
20260507005616 46 0.0 0.0 0.00 0.29 0.28 93 1011.5
20260507004616 46 0.0 0.0 0.00 0.29 0.28 92 1011.4
20260507003616 46 0.0 0.0 0.00 0.29 0.28 92 1011.5
20260507002737 46 0.0 0.0 0.00 0.29 0.28 92 1011.3
20260507001700 46 0.0 0.0 0.00 0.29 0.28 91 1011.3
20260507000656 46 0.0 0.0 0.00 0.29 0.28 91 1011.2
20260506235616 46 0.0 0.0 0.00 0.29 0.28 91 1011.0
20260506234656 46 0.0 0.0 0.00 0.29 0.28 91 1011.0
20260506233616 47 0.0 0.0 0.00 0.29 0.28 91 1010.8
20260506232615 46 0.0 0.0 0.00 0.29 0.28 90 1010.8
20260506231717 46 0.0 3.0 0.00 0.29 0.28 91 1010.8
20260506230636 47 0.0 0.0 0.00 0.29 0.28 91 1010.8
20260506225636 46 0.0 0.0 0.00 0.29 0.28 91 1010.3
20260506224636 47 270 1.0 3.0 0.00 0.29 0.28 91 1010.5
20260506223636 47 292 4.0 7.0 0.00 0.29 0.28 91 1010.4
20260506222636 47 292 1.0 2.0 0.00 0.29 0.28 91 1010.2
20260506221656 47 292 1.0 3.0 0.00 0.30 0.28 91 1010.1
20260506215616 47 292 2.0 4.0 0.00 0.30 0.28 92 1010.1
20260506214615 47 270 2.0 4.0 0.00 0.30 0.28 92 1010.2
20260506213615 47 0.0 1.0 0.00 0.30 0.28 92 1010.1
20260506212635 47 270 4.0 7.0 0.00 0.30 0.28 92 1009.9
20260506211656 47 0.0 2.0 0.00 0.30 0.28 93 1009.7
20260506210716 47 270 7.0 13.0 0.00 0.30 0.28 93 1009.6
20260506204656 48 337 2.0 5.0 0.00 0.30 0.28 93 1009.2
20260506203635 48 292 6.0 9.0 0.00 0.30 0.28 93 1008.9
20260506202656 48 0 2.0 7.0 0.01 0.30 0.28 94 1008.8
20260506201638 48 292 2.0 6.0 0.01 0.30 0.28 94 1008.7
20260506200615 48 0.0 1.0 0.01 0.30 0.28 94 1008.3
20260506195635 48 0.0 1.0 0.02 0.30 0.28 94 1008.2
20260506194615 48 0.0 1.0 0.02 0.30 0.28 94 1008.2
20260506193615 47 0 1.0 4.0 0.02 0.32 0.28 94 1008.2
20260506192615 48 0.0 3.0 0.01 0.36 0.28 94 1008.2
20260506191711 48 0 3.0 4.0 0.01 0.37 0.28 94 1008.2
20260506191315 48 0.0 1.0 0.01 0.37 0.28 94 1008.1
20260506190315 48 315 3.0 4.0 0.01 0.37 0.28 94 1008.1
20260506185319 49 292 1.0 2.0 0.00 0.36 0.27 94 1007.8
20260506184315 49 0.0 1.0 0.00 0.36 0.27 95 1007.4
20260506183316 49 0.0 1.0 0.01 0.36 0.27 95 1007.3
20260506182315 49 270 1.0 3.0 0.01 0.36 0.27 95 1007.2
20260506181315 48 0.0 0.0 0.01 0.36 0.27 95 1007.3
20260506180316 49 0.0 0.0 0.01 0.36 0.27 95 1007.3
20260506175315 49 270 1.0 2.0 0.01 0.36 0.27 95 1007.2
20260506174415 49 292 1.0 4.0 0.01 0.36 0.27 95 1007.0
20260506173436 49 292 1.0 2.0 0.00 0.35 0.26 95 1006.7
20260506172335 49 247 1.0 3.0 0.01 0.35 0.26 95 1006.7
20260506171315 49 292 1.0 3.0 0.01 0.35 0.26 95 1006.7
20260506170335 49 0.0 1.0 0.01 0.35 0.26 95 1006.7